R. Weryk (ハワイ大学, 天文学研究所)の通報によると、7月28日UT、HaleakalaにあるPan-STARRS1
1.8-m Ritchey-Chretien反射望遠鏡で得た3枚の45秒w-バンド画像から彗星を発見した。
1".4のシーンイングで彗星の頭部の半値全幅(FWHM)は約2"に見えたけれど、p.a. 240°に向かって
明らかに少なくとも12"の真直ぐな尾がある。
Werykは、また7月20日にHaleakalaにあるPan-STARRS2 1.8-m Ritchey-Chretien反射望遠鏡で得た
4枚の45秒w-バンド発見前の画像を確認した。画質は貧弱でこの彗星は完全に拡散しているらしい
(頭部のFWHMは1".7 のシーイングで約2".5であった)。p.a. 245°に少なくとも6"の明らかに真直ぐ
な尾がある。
彗星機能の報告は次の通り:
OC Date Reporter Coma Tail PA Exposures
F52 2020-07-20 R. Weryk 0".9 6" 245 4x45s
F51 2020-07-28 R. Weryk 0".6 12" 240 3x45s
F51 2020-07-29 Y. Ramanjooloo 2".2 7".5 270 4x60s
I52 2020-07-30 R. A. Kowalski 5" 3' 230
F51 2020-07-30 R. Weryk 0".35 16" 240 4x60s
F51 2020-07-31 R. Weryk 1".1 42" 240
発見位置は次のとおり、
2020 UT R.A. (2000) Decl. Mag.
July 20.48026 22 05 20.07 - 2 06 32.3 20.8
20.49182 22 05 19.83 - 2 06 32.0 21.0
20.50337 22 05 19.55 - 2 06 32.0 20.8
20.51495 22 05 19.23 - 2 06 32.1 21.1
28.50525 22 01 53.74 - 2 09 13.4 21.0
28.51861 22 01 53.36 - 2 09 13.9 21.5
28.53189 22 01 52.94 - 2 09 14.8 20.7
28.54516 22 01 52.57 - 2 09 15.2 21.2
MPCの楕円軌道要素、位置推算表は次のとおり、
Orbital elements:
P/2020 O3 (PANSTARRS)
Epoch 2020 Dec. 17.0 TT = JDT 2459200.5
T 2020 Dec. 31.40782 TT Rudenko
q 4.1744179 (2000.0) P Q
n 0.09786140 Peri. 77.85126 +0.95420530 +0.26076473
a 4.6636768 Node 266.89810 -0.29790548 +0.87299464
e 0.1049084 Incl. 8.44289 +0.02728696 +0.41216759
P 10.1
From 26 observations 2020 July 20-31, mean residual 0".3.
P/2020 O3 (PANSTARRS)
Epoch 2031 Jan. 14.0 TT = JDT 2462880.5
T 2030 Dec. 29.70935 TT Rudenko
q 4.1692233 (2000.0) P Q
n 0.09821995 Peri. 77.00320 +0.94983548 +0.27622688
a 4.6523201 Node 266.81639 -0.31206370 +0.86812307
e 0.1038400 Incl. 8.44697 +0.02070786 +0.41238459
P 10.0
From 26 observations 2020 July 20-31, mean residual 0".3.
P/2020 O3 (PANSTARRS)
Epoch 2020 May 31.0 TT = JDT 2459000.5
T 2020 Dec. 28.92915 TT Rudenko
q 4.1748105 (2000.0) P Q
n 0.09763190 Peri. 77.52850 +0.95285505 +0.26563369
a 4.6709823 Node 266.92788 -0.30237803 +0.87142636
e 0.1062243 Incl. 8.44502 +0.02519486 +0.41237706
P 10.1
From 26 observations 2020 July 20-31, mean residual 0".3.
Ephemeris:
Date TT R. A. (2000) Decl. Delta r Elong. Phase m1
2020 07 03 22 10 08.3 -02 21 28 3.5105 4.2033 127.1 11.1 21.0
...
2020 07 18 22 06 15.3 -02 06 54 3.3524 4.1988 141.8 8.6 20.9
...
2020 07 26 22 03 02.4 -02 07 44 3.2872 4.1965 149.8 7.0 20.8
...
2020 08 01 22 00 12.5 -02 12 11 3.2485 4.1949 155.8 5.7 20.8
2020 08 02 21 59 42.4 -02 13 13 3.2429 4.1946 156.8 5.5 20.8
2020 08 03 21 59 11.9 -02 14 21 3.2376 4.1943 157.7 5.3 20.8
...
2020 08 09 21 56 00.8 -02 22 47 3.2115 4.1928 163.3 4.0 20.8
...
2020 08 17 21 51 31.3 -02 38 05 3.1922 4.1908 169.1 2.6 20.7
...
2020 09 01 21 43 07.9 -03 15 53 3.2057 4.1874 164.7 3.7 20.7
(MPEC 2020-P11、CBET 4824)